GEFSNE_500_meanwind_192.txt.gz
Wind_Speed
4 4 4 4 4 4 4 5 5 5 6 7 8 8 8 8 8 8 8 8 9 9 10 10 10 11 12 12 12 13 14 15 15 16 16 17 17 18
5 5 5 5 5 5 5 5 5 6 7 8 9 9 9 9 9 9 9 9 10 10 10 11 11 12 12 13 14 14 15 16 16 17 17 18 18 19
5 5 5 5 6 6 6 7 7 7 8 9 9 9 10 10 9 10 10 11 11 11 11 12 13 13 14 14 15 15 16 16 17 17 18 19 19 20
5 5 6 6 6 6 7 7 8 8 9 9 9 9 10 10 10 10 10 11 11 12 13 13 14 14 15 16 16 16 17 18 18 19 19 20 20 21
6 6 6 7 7 7 7 7 8 8 8 9 9 10 10 10 10 11 11 12 12 13 14 14 15 15 16 16 17 18 19 20 20 21 21 22 22 22
7 7 7 7 7 8 8 9 9 9 9 10 10 11 11 11 12 13 13 13 15 14 15 15 16 17 17 18 19 20 21 22 22 22 23 24 24 24
7 8 8 8 8 9 9 10 10 10 10 11 11 11 12 13 13 14 15 16 16 16 16 17 17 18 19 20 21 21 22 22 23 24 25 26 26 26
8 9 9 9 9 10 10 10 10 11 11 12 12 13 14 14 15 15 16 17 18 18 18 19 19 20 21 21 22 23 24 25 25 26 26 27 28 29
10 11 11 10 11 11 11 12 12 13 13 14 14 14 15 16 16 16 17 18 19 20 20 21 22 22 23 24 25 26 26 27 28 28 29 29 30 31
12 13 13 13 13 13 13 14 14 15 15 16 16 17 17 17 17 18 19 20 21 22 23 23 24 25 26 27 28 28 29 29 30 31 32 33 34 34
13 14 14 14 14 15 15 15 16 16 17 17 18 18 18 19 20 21 22 23 23 24 25 26 26 27 28 29 30 30 31 32 33 34 35 36 37 37
14 15 16 16 16 16 16 17 17 18 19 19 19 19 20 21 22 23 23 24 25 25 26 27 27 28 29 30 32 33 34 35 36 37 38 39 39 39
16 16 16 17 17 17 17 18 19 19 20 20 20 21 21 22 23 24 25 26 26 27 27 28 29 30 31 32 33 35 36 37 38 39 40 41 41 42
17 17 17 17 17 18 18 19 20 20 20 20 21 21 22 23 24 25 26 27 28 29 29 30 31 32 33 34 35 37 38 39 40 41 42 43 45 45
17 17 18 18 18 18 19 20 20 20 21 21 22 23 24 25 26 27 28 28 29 30 31 32 33 34 35 37 38 39 40 41 43 44 45 46 46 47
18 18 18 18 18 18 19 20 20 21 22 23 23 25 25 26 26 28 29 30 31 32 33 33 34 35 37 38 40 41 43 43 44 45 46 47 48 48
19 19 19 18 19 19 20 21 22 22 23 23 24 25 26 26 27 28 30 31 32 33 34 35 36 37 39 40 42 43 44 45 45 46 46 47 47 48
19 19 19 19 20 20 21 22 22 23 23 24 25 26 27 28 29 30 31 32 33 34 36 37 39 40 41 42 43 44 45 46 46 47 47 47 47 47
20 20 20 21 21 22 22 23 23 23 24 25 26 27 28 29 31 32 33 34 35 36 38 39 40 41 43 44 45 45 46 46 47 47 48 48 48 47
21 21 22 22 22 23 23 23 23 24 25 26 27 28 30 31 32 33 34 35 36 38 39 40 42 43 44 46 46 46 47 47 47 47 48 48 48 48
22 22 23 23 23 23 23 24 25 26 27 28 29 31 31 32 33 34 35 37 38 39 40 42 44 45 47 47 47 47 47 47 47 47 47 47 47 47
22 23 23 24 24 25 25 26 27 28 29 30 31 32 32 33 34 36 37 38 39 41 43 44 45 46 47 47 47 47 46 46 46 47 48 48 47 46
23 23 23 24 25 26 26 27 28 29 30 31 32 32 33 34 36 38 39 40 41 43 44 45 46 47 47 47 46 46 45 46 46 46 46 47 47 48

GEFSNE_500_meanwind_198.txt.gz
Wind_Speed
5 5 5 5 4 4 4 5 5 5 6 6 7 7 8 9 9 10 10 9 9 10 10 10 11 11 11 11 11 11 12 12 13 13 13 14 15 16
5 5 5 5 5 6 6 6 6 6 7 7 8 8 9 9 9 10 10 10 10 10 10 11 11 11 12 12 12 13 13 13 14 14 15 16 17 17
5 5 5 6 6 6 7 7 7 7 7 8 8 9 9 10 10 10 10 10 10 11 11 11 11 12 13 13 13 14 14 15 15 16 17 17 18 19
6 5 5 6 5 6 7 7 7 7 7 7 8 8 9 9 10 10 10 11 11 12 12 12 13 13 14 14 15 15 16 16 17 18 19 19 20 21
6 6 6 5 5 6 6 7 7 7 7 8 9 9 10 10 11 11 11 12 12 13 13 14 14 15 15 16 16 17 18 19 19 20 21 22 22 23
6 5 6 6 6 6 7 7 8 8 9 9 10 10 11 12 12 13 13 13 14 15 15 15 16 17 17 18 18 19 20 20 21 22 23 24 25 25
5 5 6 6 7 8 8 9 9 10 10 11 11 12 13 14 14 14 14 15 16 16 17 17 18 18 19 19 20 21 22 22 23 24 25 25 26 27
7 7 7 8 9 9 9 10 10 11 11 12 12 13 14 15 15 15 16 16 17 17 18 19 20 20 21 22 22 23 24 24 25 26 27 28 29 29
9 9 10 10 10 11 11 11 11 11 12 13 13 14 15 16 16 17 17 17 17 18 19 20 21 22 23 24 25 25 26 27 28 29 30 31 31 32
11 12 12 12 12 12 12 12 12 12 13 13 14 15 15 16 17 17 17 18 19 20 21 22 23 24 25 26 26 27 28 29 30 31 32 33 34 34
13 13 13 14 14 14 14 14 14 14 15 15 16 16 17 17 18 18 19 20 21 21 22 23 24 25 26 27 28 29 30 32 33 34 34 35 35 36
14 15 15 15 15 15 15 15 15 15 16 16 17 18 18 19 19 19 20 21 22 22 23 25 26 27 27 28 30 31 32 34 35 35 36 36 37 38
16 16 16 16 15 15 15 16 16 17 17 17 18 19 19 20 20 21 22 22 23 24 25 26 28 28 30 30 31 32 33 35 35 36 37 38 38 39
16 16 16 16 16 16 17 17 17 18 18 18 19 20 21 21 22 22 23 23 24 25 26 28 29 30 31 31 32 34 35 36 36 37 38 38 39 40
17 17 17 17 16 16 17 17 17 18 19 20 21 21 22 22 23 24 24 24 25 26 27 28 29 30 31 32 34 35 36 37 38 39 39 39 39 40
18 18 18 17 17 18 18 18 19 20 20 21 22 22 22 23 24 24 24 25 26 27 28 29 30 32 33 35 36 37 38 39 39 40 40 41 42 43
19 19 19 19 19 19 19 19 20 20 20 21 22 22 23 24 24 24 25 26 27 28 29 31 32 34 36 37 38 39 40 40 40 41 42 43 44 45
19 19 20 20 20 20 20 20 20 21 21 22 23 23 23 24 25 26 27 28 29 30 31 33 35 36 38 38 39 40 41 41 41 41 43 43 44 44
19 19 20 20 21 21 21 21 22 22 23 23 23 24 25 25 26 28 28 30 31 33 34 35 36 37 38 39 39 40 40 41 41 41 42 43 44 44
20 21 21 21 22 23 23 23 24 24 24 24 24 25 26 27 28 29 30 31 33 35 36 36 37 38 38 38 39 40 41 42 42 43 44 45 45 45
21 22 23 23 23 24 24 25 25 26 25 25 26 26 27 28 29 30 32 33 34 35 36 36 36 37 38 39 40 41 42 43 44 44 45 45 45 45
24 23 24 25 25 25 25 25 26 26 26 27 27 28 28 30 31 32 33 34 35 36 36 36 37 38 39 40 42 43 44 44 45 45 45 45 45 44
25 26 26 26 26 25 26 26 26 26 27 27 28 29 30 31 32 33 35 35 36 36 37 38 38 39 40 42 43 44 44 45 45 46 45 45 45 45

GEFSNE_500_meanwind_204.txt.gz
Wind_Speed
6 5 5 5 5 5 5 5 6 7 7 8 9 9 10 10 11 11 11 12 12 12 13 12 12 11 11 11 11 11 12 12 12 12 13 14 14 15
6 5 5 4 4 5 6 6 6 7 8 9 9 10 10 11 11 11 11 12 12 13 13 12 12 12 11 12 12 12 13 13 14 14 14 15 15 15
6 6 5 5 5 5 6 7 7 7 8 9 9 9 10 10 10 11 11 11 12 12 13 13 13 13 13 13 14 14 15 15 15 15 16 16 17 18
7 6 6 6 6 6 6 6 7 7 8 8 9 9 10 10 11 11 12 12 13 13 13 13 13 14 14 15 15 16 16 16 16 17 18 19 19 20
7 7 7 7 7 6 6 6 7 7 8 8 9 10 11 11 11 12 12 13 14 14 14 14 14 15 16 16 17 17 18 18 19 20 20 21 22 23
7 7 7 7 7 7 7 7 8 8 9 9 10 11 11 12 13 13 13 14 14 15 15 16 16 17 17 18 18 19 19 20 20 21 22 23 24 24
8 8 8 8 8 8 8 8 9 9 9 10 11 12 12 12 13 13 14 15 15 16 16 16 17 18 19 20 20 20 21 22 23 24 25 25 25 26
9 9 9 9 9 9 9 9 10 10 11 11 12 12 13 13 14 14 14 15 16 17 17 18 18 19 20 20 21 21 23 24 25 26 26 26 27 28
10 10 11 11 11 11 11 11 11 12 12 13 13 14 14 15 15 15 15 16 17 18 18 19 19 20 21 22 22 23 24 25 26 27 27 28 29 30
13 12 12 12 12 12 13 13 13 13 14 14 14 14 15 15 15 16 16 17 18 19 19 20 21 21 22 23 23 24 25 27 28 28 29 30 31 33
13 13 13 14 14 14 14 15 15 15 15 15 15 16 16 17 17 17 17 18 18 19 20 22 22 22 22 23 24 25 27 28 30 31 32 33 34 35
13 13 13 14 14 15 15 15 15 15 16 16 17 17 17 17 18 19 19 19 20 21 22 23 24 24 24 24 26 28 29 31 32 34 35 35 36 36
14 15 15 15 15 16 16 16 16 16 17 17 17 18 18 19 19 20 21 21 22 23 24 25 25 25 26 26 28 30 32 33 34 35 36 36 36 36
16 16 16 17 17 17 16 16 17 17 18 18 18 19 20 20 21 22 23 24 24 25 26 26 26 27 28 29 30 32 33 35 35 36 36 37 37 37
17 17 17 17 17 17 16 17 18 18 19 19 19 20 21 22 22 23 24 25 26 26 26 27 28 29 29 31 32 33 34 35 36 36 37 38 38 38
18 17 17 18 18 18 18 18 19 19 20 20 21 22 22 23 23 24 25 25 26 27 27 28 28 29 31 32 34 35 36 37 38 38 39 39 39 39
19 19 19 19 19 19 19 20 20 20 21 21 22 23 23 23 24 25 26 26 26 27 28 29 30 31 33 34 35 36 36 37 38 39 39 40 40 40
21 20 21 21 20 21 21 21 21 22 23 23 24 24 24 24 25 26 27 28 28 28 29 30 31 32 34 35 36 36 37 38 39 40 40 40 40 40
21 21 21 21 21 21 22 22 23 23 24 24 24 24 25 25 26 28 28 29 29 30 30 31 32 33 34 35 36 37 38 38 39 39 40 41 41 41
21 21 21 21 22 23 23 24 24 24 24 25 26 26 26 27 28 29 30 30 31 31 32 33 34 35 35 36 37 38 39 39 39 40 41 41 42 41
22 22 23 23 23 23 24 24 25 25 26 26 27 27 27 28 29 30 31 32 32 33 34 34 35 36 36 37 38 39 39 40 40 40 41 41 42 42
23 23 23 23 24 24 25 25 26 26 27 27 28 28 28 29 30 31 31 32 33 34 35 36 36 37 38 38 39 39 39 40 40 41 42 42 42 42
24 25 25 25 26 26 26 27 27 27 28 28 28 28 29 30 30 31 32 33 34 35 36 37 38 39 39 38 38 38 39 39 41 41 42 43 44 44

GEFSNE_500_meanwind_210.txt.gz
Wind_Speed
5 5 5 5 5 5 5 4 5 5 5 6 6 6 7 7 8 8 8 8 8 9 10 9 9 9 8 8 9 9 10 10 11 11 12 13 13 13
6 6 5 5 4 5 5 5 5 5 5 5 6 7 7 7 8 8 8 8 9 10 10 10 10 10 10 10 10 10 11 12 13 13 13 14 14 14
6 6 5 5 5 5 5 5 5 5 5 5 6 6 7 7 8 8 9 9 10 10 11 10 10 11 11 12 12 12 13 13 14 14 14 15 15 15
7 6 6 6 6 5 5 6 5 5 5 5 6 6 7 7 8 9 9 10 11 10 11 11 11 12 12 12 13 14 15 15 15 15 15 15 15 16
7 7 6 6 6 6 6 6 5 5 5 6 7 7 7 8 8 9 10 11 11 11 12 12 12 13 13 13 14 15 16 16 16 17 17 17 17 18
8 8 8 7 7 6 6 6 6 6 7 7 7 7 8 9 10 10 11 11 12 12 13 13 14 14 14 14 15 16 17 17 18 18 18 19 20 21
9 9 9 8 8 8 7 7 7 8 8 8 8 9 10 11 11 11 12 12 12 13 14 14 14 15 16 16 17 18 18 19 19 20 20 20 21 23
10 10 10 9 9 9 9 8 9 9 9 9 10 11 12 12 12 12 12 13 13 14 15 15 16 17 17 18 18 19 20 20 21 22 22 23 24 25
11 10 10 10 9 10 10 10 10 11 11 11 12 12 13 13 13 13 14 14 15 16 16 17 18 17 18 19 20 21 21 22 23 23 24 25 26 27
12 11 11 10 10 10 10 11 11 12 12 12 12 13 13 14 14 15 15 16 16 17 17 18 18 18 19 21 22 23 23 24 25 26 26 27 28 29
12 12 11 11 11 12 12 12 12 12 13 13 14 14 15 15 16 16 17 17 17 18 18 18 19 20 21 22 23 24 25 26 27 28 28 29 30 31
14 14 13 13 13 12 13 13 14 14 14 14 15 15 15 16 16 17 18 18 18 19 19 19 20 21 22 24 25 25 26 27 28 29 30 31 32 32
15 15 15 15 15 15 15 15 15 16 16 16 17 17 17 17 18 18 19 20 20 20 21 22 22 23 24 25 26 27 28 29 30 31 31 32 33 33
16 16 17 17 17 17 17 17 17 18 18 18 18 18 19 19 20 20 20 21 21 21 22 23 24 24 26 26 27 28 29 30 30 31 32 32 33 34
17 17 17 18 18 18 18 19 19 19 19 20 19 20 20 20 21 21 21 21 22 22 23 24 25 26 27 27 28 29 30 31 32 32 32 33 34 35
19 19 19 19 19 20 20 19 19 20 20 20 20 21 22 21 21 21 22 22 23 23 24 25 27 28 28 29 30 31 31 32 32 33 33 34 35 35
21 21 21 21 21 21 21 21 21 21 21 21 21 22 21 21 22 22 22 23 23 25 26 27 28 30 30 31 31 32 32 32 33 34 35 35 36 37
21 21 22 22 23 23 23 23 23 23 23 23 23 22 22 22 23 23 23 24 25 26 27 28 29 30 31 32 32 32 32 33 34 35 36 36 37 37
21 22 23 23 24 25 25 25 25 24 24 24 25 25 25 25 25 25 26 26 27 28 28 29 30 31 32 32 32 33 33 35 36 37 37 38 38 38
21 21 22 23 24 25 25 25 25 25 25 25 25 26 26 26 27 27 28 29 29 30 30 31 32 32 32 32 33 34 35 36 37 38 38 38 39 39
22 22 23 24 24 25 25 26 26 26 25 25 26 27 27 27 28 29 30 31 31 31 31 32 32 33 33 34 34 35 36 37 37 38 38 38 39 40
22 22 23 24 25 25 25 26 26 26 26 27 27 27 28 29 29 30 31 31 31 31 31 32 33 33 34 35 35 36 36 37 37 37 38 39 40 41
23 23 24 24 25 25 25 26 26 27 27 28 28 28 29 29 30 31 31 31 31 31 32 33 33 34 35 35 36 36 37 37 38 38 39 40 41 42